カタログに戻る

STARLINK-6065

運用中通信VLEO
NORAD 56812·PAYLOAD·🇺🇸 United States

打ち上げ May 31, 2023 から Vandenberg Space Force Base

Loading…

次のパス (今後24時間)

TLE

最新Source: CelesTrak SupGP

元期: Sep 15, 2026, 03:09 UTC

1 56812C 23078AX  26258.13173611  .00697510  00000+0  55761-1 0  2588
2 56812  70.0008 206.6843 0003029 273.3216  69.4236 14.99795283    14

AllMySatでSTARLINK-6065をリアルタイム追跡

Download on the App Store